Theta_e
349 350 351 352 351 353 353 351 352 353 348 349 344 342 340 342 341 341 341 341 339 339 340 338 338 339 339 338 336 336 338 336 341 343 344 341 342 342 341 342 343 345 344
351 350 351 352 352 352 351 350 349 348 348 349 346 345 344 343 343 342 342 342 340 338 338 338 337 338 339 338 340 337 338 338 342 340 340 341 341 341 343 344 343 344 344
352 352 352 341 346 354 354 353 350 348 348 348 347 346 344 342 341 340 339 337 337 337 337 337 337 337 338 339 339 341 337 338 340 340 337 340 341 340 341 342 343 345 343
355 354 344 337 349 355 355 354 351 349 349 350 345 342 342 342 338 336 336 336 336 334 337 338 338 337 338 339 340 341 340 337 339 338 337 338 340 341 340 342 342 342 343
354 352 353 356 357 352 352 342 341 350 350 345 342 342 340 336 337 337 337 338 338 335 338 338 338 337 339 338 340 339 340 339 339 339 337 337 339 341 340 339 340 340 342
357 358 359 355 351 348 343 347 350 348 343 341 341 337 337 336 335 335 338 337 337 336 335 337 338 337 337 338 338 339 339 338 337 338 337 337 340 340 339 341 340 340 340
357 356 353 349 344 348 351 349 347 344 340 342 338 338 337 335 337 336 339 338 338 337 337 337 339 338 336 338 338 338 339 339 338 339 338 338 339 339 341 341 340 340 340
355 349 346 347 350 348 346 344 345 341 340 341 340 338 336 336 338 337 337 337 337 337 337 337 337 338 337 337 337 338 340 340 339 339 339 339 339 340 341 341 339 339 341
346 349 353 352 349 346 342 344 343 333 340 340 340 337 335 337 337 337 337 336 336 336 336 337 337 338 337 336 336 338 339 340 339 339 338 339 340 335 339 338 339 339 339
347 345 347 346 345 344 341 340 333 332 340 340 341 338 335 335 334 333 336 337 337 337 337 337 338 339 338 338 337 338 338 339 339 339 339 340 339 336 337 337 336 340 339
347 345 344 343 345 344 340 339 340 338 340 340 341 340 335 336 335 334 333 335 336 337 338 338 337 337 339 338 338 338 339 339 339 339 340 338 339 332 335 336 337 338 339
347 346 344 344 346 345 344 341 341 340 337 341 341 341 341 336 337 334 333 332 334 335 337 339 336 337 337 337 338 338 336 338 337 335 334 332 330 333 337 337 336 337 337
346 344 346 346 346 347 346 345 342 340 340 342 341 341 340 339 338 336 334 333 333 334 336 336 339 338 337 337 337 336 336 335 333 334 336 334 332 334 336 336 335 336 335
346 347 347 348 348 348 346 346 338 342 343 344 342 340 339 339 338 338 335 334 332 334 334 336 336 336 337 337 337 336 335 335 335 336 336 336 335 334 334 334 332 335 333
347 348 349 349 347 346 345 344 347 342 343 343 341 340 337 339 339 339 336 335 335 333 332 332 333 333 334 334 334 334 334 334 334 334 333 332 330 331 331 331 332 331 329
350 349 348 347 348 347 347 347 347 345 343 343 342 341 337 337 337 335 335 336 335 334 333 333 333 334 334 334 334 334 334 333 332 332 332 332 332 332 333 331 329 328 329
347 347 345 345 345 346 346 346 345 345 345 344 341 340 338 335 334 337 336 335 335 334 334 333 333 333 332 332 330 329 330 331 331 331 331 332 332 332 331 330 329 327 327
344 343 342 342 342 342 341 342 342 343 345 344 342 340 339 336 337 337 337 335 334 331 332 334 333 332 330 330 330 331 328 328 328 328 327 324 325 325 323 323 322 321 322
341 341 340 340 339 335 329 328 329 330 337 344 342 339 338 337 337 337 337 335 333 330 325 327 329 332 330 330 328 329 328 327 326 325 324 322 322 323 323 320 318 316 315
340 339 337 328 328 329 330 331 332 335 334 340 343 339 337 336 336 335 336 334 332 329 326 324 327 330 330 329 328 327 327 327 326 322 320 319 319 320 318 317 315 313 312
336 329 328 329 329 330 331 332 333 335 335 337 341 340 338 336 336 335 335 333 331 331 330 325 324 327 327 326 325 325 325 322 319 315 314 314 314 316 317 315 312 314 316
327 329 328 328 330 331 330 333 333 333 335 338 338 338 338 336 335 334 333 330 329 330 327 323 322 322 322 320 319 317 317 318 312 311 312 313 313 313 314 316 315 310 312
327 327 327 327 328 329 329 331 330 330 331 331 333 334 333 331 329 332 332 329 325 324 321 320 320 319 319 320 319 319 317 316 314 315 315 315 312 310 309 308 307 306 309
326 326 326 325 326 326 327 327 327 327 328 329 325 323 324 325 326 325 322 321 320 319 318 318 318 316 315 316 316 316 314 313 309 307 304 304 304 304 304 303 302 303 303
323 324 323 323 323 323 323 324 323 324 326 324 323 321 319 319 319 318 316 316 314 312 312 312 310 309 305 304 302 301 303 304 305 304 304 304 304 303 303 303 302 302 302
322 323 322 320 320 321 320 320 319 320 320 319 317 316 315 314 313 312 306 301 300 299 299 298 298 299 299 298 299 302 304 304 304 304 304 303 303 302 302 302 301 301 301
Wind_Speed
32 31 27 27 27 25 22 20 18 15 13 14 12 13 14 14 16 16 17 19 17 21 23 22 21 23 22 22 22 18 17 18 13 9 6 6 9 10 10 16 20 20 19
36 34 30 26 30 25 18 16 15 15 12 12 11 14 16 19 20 19 20 20 23 25 26 24 22 23 25 23 21 24 18 18 17 11 6 4 9 12 12 13 16 21 22
36 27 20 7 22 22 16 9 8 8 7 9 12 14 16 18 19 20 20 21 22 22 24 24 23 24 25 25 24 24 24 20 21 18 10 5 5 6 10 15 13 16 19
22 35 31 23 23 17 7 4 4 6 4 4 9 14 15 15 18 20 20 20 21 21 19 22 23 23 25 26 24 23 26 25 22 19 17 15 10 3 4 10 9 11 16
24 24 13 18 14 7 10 6 7 3 2 6 10 10 14 15 14 16 18 18 16 18 17 17 21 23 25 25 24 23 24 27 25 22 19 16 16 17 12 13 7 9 13
27 26 20 14 14 11 18 13 9 4 5 6 4 8 10 16 17 14 18 13 10 13 15 15 19 22 23 24 26 25 25 26 24 22 24 20 12 14 10 16 9 10 9
27 22 19 17 17 18 17 13 5 3 6 5 7 10 14 14 12 10 9 2 4 7 10 11 16 19 22 22 24 25 24 24 24 23 24 20 20 17 11 10 6 7 8
26 23 17 14 17 15 12 5 1 7 5 5 7 11 13 13 13 10 5 3 3 3 5 8 10 16 18 21 21 23 23 23 23 22 21 18 19 16 11 12 9 4 8
27 20 14 17 15 11 9 5 2 5 5 2 5 11 12 11 13 13 10 8 5 2 2 4 7 11 14 18 17 20 18 20 22 21 20 20 18 21 15 16 10 7 6
28 22 20 16 10 7 7 1 5 2 1 2 5 9 9 7 11 14 14 10 10 6 1 2 4 8 10 13 17 19 19 18 20 23 23 24 21 18 16 14 11 7 8
25 25 26 17 8 3 4 3 3 2 2 1 3 8 7 6 8 8 11 12 10 9 8 6 4 2 7 11 12 12 13 13 13 14 17 17 18 14 14 9 19 9 6
29 24 24 20 13 3 5 3 2 5 1 4 2 6 8 8 10 6 10 9 9 10 10 7 6 7 8 12 13 13 13 14 13 14 16 18 22 18 10 5 5 7 8
27 23 19 18 12 9 7 2 4 5 1 4 3 2 4 8 8 7 7 8 7 7 6 8 7 7 8 9 8 8 14 16 18 17 16 17 17 15 9 9 7 6 3
28 25 21 17 18 9 4 4 5 8 5 3 1 2 1 3 4 5 4 6 7 8 8 10 10 10 8 6 7 11 17 19 18 17 15 13 9 8 12 11 8 7 7
25 19 19 19 10 7 5 4 1 10 8 5 2 4 1 4 1 3 5 6 7 9 11 10 11 11 9 8 6 4 4 7 10 12 12 12 11 7 8 11 12 9 4
20 15 11 9 11 10 7 7 7 7 8 6 5 6 3 7 3 8 9 9 9 9 7 6 4 5 5 5 4 3 2 2 3 6 7 7 9 9 7 8 9 9 6
13 11 9 11 11 14 16 12 14 12 10 10 8 8 9 9 7 12 12 10 10 9 8 7 6 4 5 6 4 4 5 5 6 5 6 8 8 9 9 6 11 11 11
12 10 8 8 9 10 11 13 12 10 6 10 10 13 11 16 15 13 12 11 9 8 9 8 5 5 7 7 6 6 2 4 4 4 3 4 4 5 4 2 4 3 2
12 9 7 8 10 10 9 8 9 11 14 11 12 18 19 22 19 16 15 13 9 6 5 5 6 7 8 6 5 3 2 1 4 4 4 4 4 3 3 2 4 5 6
10 9 10 8 5 5 6 7 5 3 4 12 15 22 23 23 20 16 16 14 9 4 1 5 7 10 12 11 8 5 3 5 6 8 9 9 7 5 4 3 5 5 7
8 8 4 3 4 6 5 4 5 1 2 6 13 22 26 24 20 19 16 10 6 2 2 5 9 12 14 14 10 9 7 8 11 11 11 9 7 6 4 2 1 2 2
8 7 3 0 2 5 5 5 4 4 6 14 20 24 22 18 21 17 12 8 4 3 6 7 9 11 12 13 14 8 4 6 9 10 8 6 4 2 3 5 2 2 1
10 7 5 6 9 7 7 6 10 8 10 17 21 20 22 24 22 17 11 10 8 7 9 9 10 9 9 9 9 6 4 8 8 6 4 3 5 4 3 3 4 4 3
10 9 10 10 11 11 12 13 15 13 13 14 17 19 22 21 19 17 17 15 14 14 14 14 14 14 14 13 12 10 9 8 8 10 14 16 14 13 14 13 11 7 6
10 11 12 12 13 15 17 16 16 16 18 20 20 20 21 21 21 21 20 17 17 14 13 13 12 11 11 12 12 13 15 15 15 14 14 12 11 11 11 11 10 10 10
15 14 13 15 16 16 18 19 18 18 21 23 22 22 21 20 20 20 24 22 20 17 14 13 11 12 11 12 14 17 17 16 14 12 10 7 3 2 4 5 6 7 10
Wind_Direction
176 175 176 180 184 189 192 199 203 208 220 238 249 255 256 255 258 258 246 257 253 248 256 253 249 236 233 226 227 226 221 211 214 212 216 235 251 252 234 245 241 246 238
175 176 183 188 180 182 195 207 212 218 228 248 262 261 264 264 265 263 251 259 265 259 257 255 246 235 231 225 219 219 220 210 213 213 197 231 253 257 251 241 240 244 249
174 153 108 341 227 184 195 207 218 228 244 258 275 275 277 280 280 279 266 266 264 262 252 252 244 234 229 227 226 222 220 218 217 216 214 185 228 250 253 253 248 249 247
161 163 190 207 193 180 176 195 223 214 252 287 299 300 300 303 298 287 283 274 260 251 251 250 238 230 227 224 223 224 223 224 223 221 222 223 233 245 280 253 272 253 247
156 157 171 157 166 144 178 265 213 209 271 323 313 310 308 308 307 305 295 292 270 237 234 242 235 231 223 225 225 227 224 224 228 227 222 221 241 248 245 266 268 274 250
141 147 171 166 146 138 160 191 175 179 334 317 326 314 338 331 317 305 307 273 268 231 232 240 234 229 226 226 227 228 230 228 230 230 236 227 226 243 225 246 261 267 259
148 161 162 165 168 136 146 152 152 26 7 357 2 359 350 355 348 332 357 320 263 235 226 232 231 226 224 223 225 229 229 228 228 225 228 227 230 230 225 236 256 243 246
152 153 143 145 148 129 134 158 86 13 24 21 0 4 14 17 15 6 19 40 83 157 209 225 228 229 223 222 224 227 227 226 219 217 220 215 212 207 210 241 231 232 232
151 146 159 142 138 133 147 179 9 3 37 84 359 18 29 37 47 45 47 62 87 109 188 229 233 228 217 220 220 214 222 216 212 215 216 214 205 204 217 220 216 247 240
160 161 156 144 154 157 161 155 53 47 37 23 6 20 31 47 50 42 51 65 65 65 80 216 237 229 219 213 218 211 217 213 205 207 208 206 206 200 218 225 222 228 236
161 155 153 155 164 113 86 102 52 357 151 207 11 18 18 44 26 41 41 46 46 42 54 91 85 151 178 188 200 202 200 201 214 208 196 203 195 204 234 249 235 223 236
155 159 158 158 159 135 100 122 263 320 199 151 55 17 345 336 5 20 30 36 41 41 62 98 100 113 145 153 160 172 183 192 182 184 184 188 198 199 226 200 217 232 245
155 161 164 168 176 185 177 209 286 238 288 134 74 330 328 349 4 27 47 34 43 37 57 84 105 132 138 148 172 180 177 176 182 185 186 195 203 207 199 173 166 197 240
167 164 169 165 160 182 214 300 177 192 193 204 266 148 329 339 344 11 44 44 51 70 98 95 92 95 110 129 146 173 169 170 176 185 181 171 164 170 203 210 189 167 161
162 170 167 159 163 181 222 253 217 183 211 234 278 160 78 93 66 55 74 95 72 96 102 98 100 97 106 110 115 125 164 196 213 216 220 221 214 232 212 213 219 235 246
151 158 176 166 146 148 152 172 187 213 255 250 250 218 162 136 134 93 102 112 104 121 134 127 111 96 105 109 114 111 133 174 209 203 194 194 204 208 205 210 226 230 223
152 136 132 143 158 180 193 189 194 197 204 236 227 225 166 134 123 140 135 128 124 132 129 126 122 131 132 120 105 109 137 145 139 159 187 200 209 215 224 250 279 279 284
140 162 155 176 209 219 225 230 236 235 199 181 199 194 168 151 166 164 157 149 136 129 138 146 159 152 151 137 136 136 110 158 162 145 130 86 93 100 90 140 191 197 173
156 171 206 235 247 256 266 268 250 243 225 200 199 185 175 178 181 179 171 167 173 156 133 147 157 156 154 155 176 166 114 89 144 129 139 141 169 193 175 171 169 149 138
170 215 245 253 268 297 311 315 312 254 218 207 190 188 188 192 191 189 182 180 190 196 127 170 169 159 162 168 176 192 218 217 188 166 164 159 168 174 151 146 131 125 113
209 211 224 266 325 334 338 0 46 29 197 192 192 191 191 193 200 186 174 181 193 187 168 164 165 168 170 167 184 198 187 176 159 158 156 158 169 186 174 167 251 256 195
177 178 197 190 39 46 58 94 91 96 156 176 176 177 181 187 176 175 168 165 187 199 163 155 158 165 165 157 168 167 151 154 164 146 140 142 156 182 240 271 285 108 6
172 158 135 106 98 91 94 113 106 112 144 152 147 155 162 163 154 151 161 163 134 132 131 126 126 132 131 162 190 212 172 152 157 163 161 102 70 61 39 349 347 355 18
159 137 121 113 104 105 104 101 109 119 134 139 133 128 129 131 129 127 121 117 115 120 118 118 118 114 112 112 114 116 117 114 101 92 80 76 70 64 54 49 47 51 57
146 133 123 117 118 114 107 103 110 116 117 116 114 115 115 117 118 117 112 113 111 107 109 113 115 114 116 114 112 109 107 99 89 83 79 72 74 69 63 50 43 32 21
150 142 129 124 119 116 112 113 114 117 116 113 112 110 109 108 108 111 109 101 94 94 95 99 101 109 113 113 113 108 100 94 97 102 114 120 102 77 87 69 49 35 26